Погода в Карагасе

Россия / Республика Дагестан     44°15′06″N   45°22′55″E
темп.,
°C
ветер,
м/с
пор.,
м/с
влажн.,
%
обл.,
%
осадки,
мм/ч
давл.,
гПа
погр.,
м
4 июля, пн
пн400:00+20з5105084 0.0 1013185
03:00+19з47535 0.0 1014137
06:00+20з58505 0.0 1015250
09:00+26сз57320 0.0 10151578
12:00+29сз562429 0.0 10143134
15:00+31сз662227 0.0 10123271
18:00+30зсз56215 0.0 10123172
21:00+26з493287 0.0 1013259
5 июля, вт
вт500:00+23зюз594022 0.0 1012185
03:00+21з611445 0.0 1012201
06:00+22з6114425 0.0 1013311
09:00+27сз663698 0.0 1013833
12:00+31зсз572920 0.0 10132782
15:00+32ссз562578 0.0 10113444
18:00+31ссз652632 0.0 10121678
21:00+25св59242 0.0 1014233
6 июля, ср
ср600:00+22вюв224612 0.0 101411
03:00+21ссв22500 0.0 101413
06:00+22св35380 0.0 1015160
09:00+27св55260 0.0 10151070
12:00+29св54230 0.0 10151996
15:00+31св54170 0.0 10142132
18:00+27в88320 0.0 1014955
21:00+22вюв712500 0.0 1016467
7 июля, чт
чт700:00+19вюв713690 0.0 1016492
03:00+18вюв613680 0.0 1016441
06:00+19в711620 0.0 1016666
09:00+25в810390 0.0 10151303
12:00+29в1010270 0.0 10141886
15:00+29в1111260 0.0 10121872
18:00+26в1011310 0.0 10131475
21:00+21в812410 0.0 1014608
8 июля, пт
пт800:00+20в713531 0.0 1013510
03:00+19в513630 0.0 1012418
06:00+20в511600 0.0 1013464
09:00+28вюв811260 0.0 10121417
12:00+33вюв1011190 0.0 10102359
15:00+33вюв1111180 0.0 10102474
18:00+30вюв91122100 0.0 10101879
21:00+24в81442100 0.0 1012577